Location: Unspecified
(0.0000°N, 0.0000°E)
Time: 13:54:41
(UTC+00:00)

Amateur Radio Satellites - All Passes

Search period start: 23 April 2017 13:24
Search period end: 24 April 2017 13:24
Location: Unspecified, 0.0000°N, 0.0000°E

Satellite Date Start Highest point End Downlink Frequencies (MHz)
Time Altitude Azimuth
SRMSAT 23 Apr 13:43:23 13:47:50 21° 164° (SSE) 13:52:17 437.500
DX 1 23 Apr 13:45:43 13:46:42 11° 283° (WNW) 13:47:40 434.975-435.025
Gurwin Techsat 1B 23 Apr 13:56:40 14:01:48 51° 257° (WSW) 14:06:56 435.225
BEESAT 2 23 Apr 14:00:57 14:03:56 21° 292° (WNW) 14:06:56 435.950
ITAMSAT 1 23 Apr 14:06:36 14:10:07 18° 77° (ENE) 14:13:36 435.822/435.867
BEESAT 23 Apr 14:14:37 14:19:07 43° 102° (ESE) 14:23:40 436.000
JUGNU 23 Apr 14:17:02 14:22:54 73° 339° (NNW) 14:28:48 437.505
PCSat 23 Apr 14:32:28 14:34:48 13° 250° (WSW) 14:37:10 145.827
MOZHAYETS 4 23 Apr 14:43:21 14:47:40 39° 102° (ESE) 14:51:59
ITUPSAT 1 23 Apr 14:52:17 14:56:59 59° 282° (WNW) 15:01:43 437.325
AO-7 23 Apr 15:11:04 15:19:25 81° 74° (ENE) 15:27:42 .
CUBESAT XI-V 23 Apr 15:25:28 15:28:05 15° 102° (ESE) 15:30:42 437.345
KKS-1 23 Apr 15:25:55 15:28:32 16° 102° (ESE) 15:31:10 437.445
SRMSAT 23 Apr 15:31:30 15:37:19 52° 159° (SSE) 15:43:09 437.500
ITAMSAT 1 23 Apr 15:44:55 15:49:18 28° 257° (WSW) 15:53:41 435.822/435.867
YUBILEINY 23 Apr 16:02:12 16:10:59 84° 267° (W) 16:19:52 435.215
RS-15 23 Apr 16:02:33 16:05:49 11° 65° (ENE) 16:09:01 29.354- 29.394
JUGNU 23 Apr 16:07:07 16:12:04 27° 342° (NNW) 16:17:03 437.505
STARS 23 Apr 16:08:05 16:11:19 21° 103° (ESE) 16:14:33 437.465
CUBESAT XI-V 23 Apr 17:01:16 17:05:11 27° 282° (WNW) 17:09:07 437.345
KKS-1 23 Apr 17:01:25 17:04:49 22° 282° (WNW) 17:08:15 437.445
DOVE 4 23 Apr 17:02:11 17:06:50 35° 78° (ENE) 17:11:35 437.250
AO-7 23 Apr 17:09:36 17:11:39 11° 252° (WSW) 17:13:43 .
XW-2D 23 Apr 17:13:08 17:16:04 22° 79° (E) 17:18:58 145.860 - 145.880
XW-2B 23 Apr 17:19:42 17:22:53 26° 79° (E) 17:26:02 145.730 - 145.750
SRMSAT 23 Apr 17:20:38 17:26:33 58° 339° (NNW) 17:32:27 437.500
LilacSat-2 23 Apr 17:25:51 17:29:21 36° 79° (ENE) 17:32:48 437.200
Tancredo 1 23 Apr 17:30:14 17:32:08 15° 54° (NE) 17:34:03 437.200
XW-2C 23 Apr 17:31:02 17:34:36 41° 79° (E) 17:38:08 145.795 - 145.815
NO-84 23 Apr 17:35:29 17:39:43 62° 123° (ESE) 17:43:39 435.350 FM
KAITUO 1B 23 Apr 17:38:15 17:41:44 39° 79° (E) 17:45:10 145.475/437.950
SO-50 23 Apr 17:43:15 17:47:27 38° 248° (WSW) 17:51:42 436.795
STARS 23 Apr 17:44:40 17:47:22 16° 282° (WNW) 17:50:06 437.465
JUGNU 23 Apr 17:58:57 18:01:44 13° 350° (N) 18:04:31 437.505
XW-2F 23 Apr 17:59:16 18:02:59 65° 258° (WSW) 18:06:40 145.980 - 146.000
CUTE-I 23 Apr 18:03:29 18:08:53 84° 258° (WSW) 18:14:14 437.470
RS-15 23 Apr 18:06:38 18:18:21 88° 69° (ENE) 18:29:30 29.354- 29.394
HO-68 23 Apr 18:21:25 18:27:24 29° 75° (ENE) 18:33:21 435.675
NUDT-PHONESAT 23 Apr 18:22:44 18:26:06 33° 259° (WSW) 18:29:25 437.300
CUTE 1.7 + AOD 2 23 Apr 18:24:53 18:27:47 18° 79° (ENE) 18:30:40 437.475
M-CUBED/EXP-1 PRIME 23 Apr 18:29:21 18:32:32 27° 104° (ESE) 18:35:33 437.505
DOVE 4 23 Apr 18:41:32 18:44:14 14° 259° (WSW) 18:47:00 437.250
XW-2D 23 Apr 18:49:30 18:49:58 10° 258° (WSW) 18:50:27 145.860 - 145.880
CUBEBUG 2 23 Apr 18:50:57 18:54:04 18° 79° (E) 18:57:06 437.445
SEEDS 23 Apr 18:51:38 18:55:04 25° 79° (ENE) 18:58:30 437.485
ISS 23 Apr 18:58:43 19:01:32 26° 234° (SW) 19:04:21 437.550
Tancredo 1 23 Apr 19:06:10 19:07:53 14° 234° (SW) 19:09:36 437.200
SRMSAT 23 Apr 19:11:19 19:15:59 23° 343° (NNW) 19:20:39 437.500
STRAND 1 23 Apr 19:18:55 19:23:56 62° 282° (WNW) 19:29:01 437.568
XW-2A 23 Apr 19:31:54 19:34:50 27° 259° (WSW) 19:37:44 145.665 - 145.685
ZACube-1 23 Apr 19:49:08 19:52:56 29° 79° (E) 19:56:37 437.345
AO-73 23 Apr 19:58:06 20:02:03 34° 79° (E) 20:05:54 145.935
CUTE 1.7 + AOD 2 23 Apr 20:00:41 20:03:21 17° 258° (WSW) 20:06:01 437.475
HO-68 23 Apr 20:08:44 20:14:48 30° 255° (WSW) 20:20:51 435.675
AAUSAT CUBESAT 2 23 Apr 20:10:09 20:14:08 52° 258° (WSW) 20:18:08 437.432
Oscar 11 23 Apr 20:17:56 20:22:07 51° 78° (ENE) 20:26:16 .
UWE-3 23 Apr 20:20:50 20:25:10 45° 258° (WSW) 20:29:22 435.000/436.395/437.385
RS-15 23 Apr 20:26:24 20:30:24 12° 247° (WSW) 20:34:22 29.354- 29.394
CUBEBUG 2 23 Apr 20:26:54 20:30:24 21° 258° (WSW) 20:33:50 437.445
SEEDS 23 Apr 20:29:05 20:30:28 11° 258° (WSW) 20:31:52 437.485
O/OREOS (USA 219) 23 Apr 20:42:24 20:45:56 22° 75° (ENE) 20:49:28 437.305
PRISM 23 Apr 20:52:57 20:56:32 29° 102° (ESE) 21:00:06 437.425
SRMSAT 23 Apr 21:03:45 21:05:56 12° 352° (N) 21:08:08 437.500
DELFI C3 23 Apr 21:27:12 21:31:08 70° 260° (W) 21:35:03 145.870
ZACube-1 23 Apr 21:27:29 21:28:53 11° 257° (WSW) 21:30:18 437.345
OBJECT BX 23 Apr 21:28:18 21:31:57 85° 82° (E) 21:35:34 145.990 - 145.960
TIGRISAT 23 Apr 21:33:33 21:37:48 55° 102° (ESE) 21:42:10 435.000
JUGNU 23 Apr 21:39:12 21:42:03 13° 11° (N) 21:44:55 437.505
UNISAT 6 23 Apr 21:53:36 21:57:53 66° 282° (WNW) 22:02:20 437.425
FO-29 23 Apr 22:05:58 22:11:31 85° 280° (W) 22:17:47 435.910
O/OREOS (USA 219) 23 Apr 22:22:28 22:25:04 15° 255° (WSW) 22:27:39 437.305
LO-87 23 Apr 22:44:02 22:47:41 82° 261° (W) 22:51:19 145.935 - 145.965
ESTCUBE 1 23 Apr 22:44:04 22:48:13 38° 78° (ENE) 22:52:22 437.505/2401.250
POLYITAN 1 23 Apr 22:50:05 22:53:28 24° 102° (ESE) 22:56:53 437.675
QB50P2 23 Apr 22:56:06 22:59:53 32° 102° (ESE) 23:03:40 145.880/145.840
SPROUT 23 Apr 23:08:19 23:10:29 14° 78° (ENE) 23:12:39 437.525
VELOX 1 23 Apr 23:13:49 23:16:57 19° 78° (ENE) 23:20:05 145.980
NANOSAT C BR1 23 Apr 23:21:17 23:25:25 63° 102° (ESE) 23:29:34 145.865
AO-85 23 Apr 23:22:22 23:26:42 84° 248° (WSW) 23:31:24 145.980
JUGNU 23 Apr 23:26:41 23:31:44 28° 18° (NNE) 23:36:46 437.505
AIST 2D 23 Apr 23:30:27 23:33:25 26° 281° (W) 23:36:26 435.315
BUGSAT 1 23 Apr 23:35:14 23:37:58 18° 102° (ESE) 23:40:43 437.445
50 SAT 23 Apr 23:42:19 23:44:53 20° 79° (ENE) 23:47:28 437.505
EO-79 23 Apr 23:46:53 23:50:53 45° 282° (WNW) 23:54:55 145.935-145.965
DUCHIFAT 1 23 Apr 23:53:08 23:57:08 47° 282° (WNW) 00:01:11 145.980
UKube-1 23 Apr 23:53:24 23:54:43 11° 77° (ENE) 23:56:01 .
DX 1 24 Apr 00:16:15 00:20:22 41° 78° (ENE) 00:24:29 434.975-435.025
BEESAT 2 24 Apr 00:17:33 00:19:30 13° 68° (ENE) 00:21:27 435.950
BEESAT 3 24 Apr 00:24:44 00:28:38 68° 69° (ENE) 00:32:30 437.485
POLYITAN 1 24 Apr 00:27:07 00:29:00 13° 282° (WNW) 00:30:54 437.675
SPROUT 24 Apr 00:42:40 00:46:07 24° 258° (WSW) 00:49:34 437.525
SRMSAT 24 Apr 00:43:09 00:46:33 15° 13° (NNE) 00:49:56 437.500
VELOX 1 24 Apr 00:50:02 00:53:07 19° 258° (WSW) 00:56:13 145.980
Gurwin Techsat 1B 24 Apr 00:55:59 01:00:32 29° 103° (ESE) 01:05:06 435.225
BUGSAT 1 24 Apr 01:10:41 01:13:04 15° 282° (WNW) 01:15:28 437.445
JUGNU 24 Apr 01:14:57 01:20:56 73° 21° (NNE) 01:26:53 437.505
Oscar 19 24 Apr 01:21:35 01:26:43 66° 283° (WNW) 01:31:51 437.125/150
PCSat 24 Apr 01:22:29 01:27:48 63° 289° (WNW) 01:33:09 145.827
UKube-1 24 Apr 01:26:43 01:30:28 29° 258° (WSW) 01:34:12 .
ITUPSAT 1 24 Apr 01:39:22 01:41:45 14° 77° (ENE) 01:44:07 437.325
AO-7 24 Apr 01:48:50 01:53:20 16° 108° (ESE) 01:57:48 .
BEESAT 2 24 Apr 01:53:59 01:57:01 21° 248° (WSW) 02:00:01 435.950
SRMSAT 24 Apr 02:30:56 02:36:14 34° 19° (NNE) 02:41:32 437.500
BEESAT 24 Apr 02:36:16 02:41:02 86° 83° (E) 02:45:48 436.000
Gurwin Techsat 1B 24 Apr 02:36:44 02:40:12 18° 283° (WNW) 02:43:40 435.225
ITAMSAT 1 24 Apr 02:40:00 02:44:57 48° 103° (ESE) 02:49:57 435.822/435.867
YUBILEINY 24 Apr 02:41:49 02:48:15 23° 93° (E) 02:54:37 435.215
MOZHAYETS 4 24 Apr 02:59:52 03:04:24 68° 78° (ENE) 03:08:55
JUGNU 24 Apr 03:04:25 03:10:00 41° 200° (SSW) 03:15:35 437.505
ITUPSAT 1 24 Apr 03:15:09 03:19:18 30° 257° (WSW) 03:23:26 437.325
KKS-1 24 Apr 03:37:24 03:40:59 23° 78° (ENE) 03:44:32 437.445
AO-7 24 Apr 03:37:26 03:45:37 65° 286° (WNW) 03:53:54 .
CUBESAT XI-V 24 Apr 03:42:31 03:46:17 25° 78° (ENE) 03:50:03 437.345
SO-50 24 Apr 04:16:42 04:20:04 19° 113° (ESE) 04:23:24 436.795
STARS 24 Apr 04:18:16 04:22:07 29° 78° (ENE) 04:25:57 437.465
SRMSAT 24 Apr 04:19:33 04:25:30 89° 202° (SSW) 04:31:27 437.500
YUBILEINY 24 Apr 04:36:31 04:44:39 44° 273° (W) 04:52:45 435.215
JUGNU 24 Apr 04:55:31 04:59:25 18° 194° (SSW) 05:03:18 437.505
CUTE-I 24 Apr 05:04:45 05:08:19 18° 103° (ESE) 05:11:53 437.470
XW-2D 24 Apr 05:06:57 05:09:35 18° 102° (ESE) 05:12:15 145.860 - 145.880
XW-2B 24 Apr 05:13:27 05:16:25 22° 102° (ESE) 05:19:25 145.730 - 145.750
KKS-1 24 Apr 05:14:37 05:17:15 15° 257° (WSW) 05:19:54 437.445
LilacSat-2 24 Apr 05:20:08 05:23:32 30° 101° (ESE) 05:26:58 437.200
NO-84 24 Apr 05:20:12 05:23:02 41° 59° (ENE) 05:26:06 435.350 FM
CUBESAT XI-V 24 Apr 05:20:47 05:23:23 15° 258° (WSW) 05:25:59 437.345
DOVE 4 24 Apr 05:23:29 05:27:43 59° 101° (ESE) 05:31:50 437.250
XW-2C 24 Apr 05:24:41 05:28:09 33° 101° (ESE) 05:31:38 145.795 - 145.815
KAITUO 1B 24 Apr 05:30:34 05:33:54 30° 101° (ESE) 05:37:17 145.475/437.950
RS-15 24 Apr 05:47:41 05:59:06 75° 110° (ESE) 06:11:06 29.354- 29.394
XW-2F 24 Apr 05:52:17 05:56:06 86° 275° (W) 05:59:57 145.980 - 146.000
STARS 24 Apr 05:56:33 05:58:10 12° 257° (WSW) 05:59:47 437.465
SO-50 24 Apr 05:56:42 06:00:18 21° 292° (WNW) 06:03:50 436.795
SRMSAT 24 Apr 06:09:30 06:14:46 33° 199° (SSW) 06:20:03 437.500
HO-68 24 Apr 06:13:20 06:18:55 25° 105° (ESE) 06:24:29 435.675
NUDT-PHONESAT 24 Apr 06:13:53 06:17:29 47° 280° (W) 06:21:07 437.300
STRAND 1 24 Apr 06:14:03 06:17:44 20° 77° (ENE) 06:21:22 437.568
M-CUBED/EXP-1 PRIME 24 Apr 06:27:08 06:30:50 30° 73° (ENE) 06:34:42 437.505
CUTE 1.7 + AOD 2 24 Apr 06:30:36 06:33:59 23° 102° (ESE) 06:37:23 437.475
ISS 24 Apr 06:32:23 06:35:31 44° 305° (NW) 06:38:38 437.550
Tancredo 1 24 Apr 06:35:22 06:38:00 25° 306° (NW) 06:40:37 437.200
XW-2D 24 Apr 06:41:34 06:43:30 14° 281° (WNW) 06:45:28 145.860 - 145.880
CUTE-I 24 Apr 06:43:35 06:48:04 28° 283° (WNW) 06:52:35 437.470
JUGNU 24 Apr 06:48:47 06:49:22 10° 185° (S) 06:49:56 437.505
XW-2B 24 Apr 06:49:13 06:50:21 11° 281° (WNW) 06:51:29 145.730 - 145.750
SEEDS 24 Apr 06:56:25 07:00:09 31° 101° (ESE) 07:03:55 437.485
UWE-3 24 Apr 06:58:55 06:59:37 10° 103° (ESE) 07:00:19 435.000/436.395/437.385
CUBEBUG 2 24 Apr 07:02:27 07:05:53 24° 102° (ESE) 07:09:26 437.445
XW-2A 24 Apr 07:14:04 07:17:22 56° 281° (W) 07:20:42 145.665 - 145.685
STRAND 1 24 Apr 07:52:30 07:56:37 24° 257° (WSW) 08:00:43 437.568
ZACube-1 24 Apr 07:58:13 08:02:15 39° 102° (ESE) 08:06:23 437.345
HO-68 24 Apr 07:59:51 08:06:18 37° 285° (WNW) 08:12:47 435.675
SRMSAT 24 Apr 08:01:08 08:04:28 15° 192° (SSW) 08:07:47 437.500
M-CUBED/EXP-1 PRIME 24 Apr 08:03:35 08:05:03 12° 256° (WSW) 08:06:33 437.505
RS-15 24 Apr 08:04:22 08:11:26 18° 294° (WNW) 08:18:45 29.354- 29.394
AO-73 24 Apr 08:06:52 08:11:00 46° 101° (ESE) 08:15:16 145.935
CUTE 1.7 + AOD 2 24 Apr 08:07:18 08:09:33 14° 281° (WNW) 08:11:47 437.475
AAUSAT CUBESAT 2 24 Apr 08:13:31 08:17:31 46° 281° (WNW) 08:21:31 437.432
Oscar 11 24 Apr 08:26:20 08:30:40 71° 102° (ESE) 08:35:00 .
UWE-3 24 Apr 08:31:58 08:35:44 31° 281° (W) 08:39:38 435.000/436.395/437.385
JUGNU 24 Apr 08:38:31 08:39:35 10° 174° (S) 08:40:38 437.505
CUBEBUG 2 24 Apr 08:40:14 08:42:16 13° 281° (W) 08:44:20 437.445
O/OREOS (USA 219) 24 Apr 08:52:40 08:56:53 38° 104° (ESE) 09:01:07 437.305
PRISM 24 Apr 08:55:23 08:59:03 32° 78° (ENE) 09:02:43 437.425
OBJECT BX 24 Apr 09:18:05 09:21:41 55° 101° (ESE) 09:25:17 145.990 - 145.960
DELFI C3 24 Apr 09:25:25 09:29:22 75° 282° (WNW) 09:33:20 145.870
FO-29 24 Apr 09:38:55 09:46:13 57° 78° (ENE) 09:52:42 435.910
TIGRISAT 24 Apr 09:46:37 09:51:13 88° 81° (E) 09:55:41 435.000
UNISAT 6 24 Apr 10:07:07 10:11:29 42° 258° (WSW) 10:15:43 437.425
JUGNU 24 Apr 10:25:25 10:29:28 19° 165° (SSE) 10:33:31 437.505
LO-87 24 Apr 10:32:07 10:35:35 59° 101° (E) 10:39:04 145.935 - 145.965
POLYITAN 1 24 Apr 10:56:04 10:59:47 29° 79° (ENE) 11:03:28 437.675
ESTCUBE 1 24 Apr 10:57:44 11:02:12 61° 102° (ESE) 11:06:40 437.505/2401.250
QB50P2 24 Apr 11:02:11 11:06:13 41° 78° (ENE) 11:10:11 145.880/145.840
SPROUT 24 Apr 11:14:44 11:17:28 17° 102° (ESE) 11:20:13 437.525
AIST 2D 24 Apr 11:16:14 11:19:35 44° 259° (WSW) 11:22:55 435.315
VELOX 1 24 Apr 11:24:42 11:28:23 27° 102° (ESE) 11:32:04 145.980
FO-29 24 Apr 11:26:39 11:30:36 15° 254° (WSW) 11:34:23 435.910
NANOSAT C BR1 24 Apr 11:26:54 11:31:10 78° 77° (ENE) 11:35:22 145.865
50 SAT 24 Apr 11:28:19 11:29:19 11° 102° (ESE) 11:30:18 437.505
AO-85 24 Apr 11:35:48 11:40:24 43° 291° (WNW) 11:44:41 145.980
BUGSAT 1 24 Apr 11:37:53 11:41:05 21° 78° (ENE) 11:44:15 437.445
SRMSAT 24 Apr 11:42:50 11:45:04 12° 171° (S) 11:47:17 437.500
EO-79 24 Apr 11:53:03 11:57:00 37° 258° (WSW) 12:00:55 145.935-145.965
DUCHIFAT 1 24 Apr 11:58:36 12:02:34 39° 258° (WSW) 12:06:31 145.980
UKube-1 24 Apr 12:00:37 12:03:01 15° 103° (ESE) 12:05:26 .
BEESAT 2 24 Apr 12:10:31 12:12:25 13° 112° (ESE) 12:14:19 435.950
JUGNU 24 Apr 12:13:12 12:18:47 45° 160° (SSE) 12:24:24 437.505
PCSat 24 Apr 12:16:22 12:20:50 26° 70° (ENE) 12:25:16 145.827
BEESAT 3 24 Apr 12:16:24 12:20:12 68° 112° (ESE) 12:24:02 437.485
Oscar 19 24 Apr 12:17:44 12:21:21 19° 77° (ENE) 12:24:57 437.125/150
DX 1 24 Apr 12:25:38 12:29:53 57° 102° (ESE) 12:34:08 434.975-435.025
POLYITAN 1 24 Apr 12:34:32 12:35:17 10° 258° (WSW) 12:36:01 437.675
SPROUT 24 Apr 12:50:09 12:53:06 19° 282° (WNW) 12:56:04 437.525
50 SAT 24 Apr 12:59:45 13:02:00 16° 282° (WNW) 13:04:15 437.505
VELOX 1 24 Apr 13:02:38 13:04:34 13° 282° (WNW) 13:06:29 145.980
BUGSAT 1 24 Apr 13:13:43 13:16:10 15° 258° (WSW) 13:18:35 437.445
